BREEZE-KM R/B, 40556

Orbit data source: Space-Track

BREEZE-KM R/B, 40556 is space debris in LEO originally from a launch on Tue, 31 Mar 2015 UTC launched from the Plesetsk Missile And Space Complex (PKMTR). Debris objects in space refer to the collection of defunct objects orbiting the Earth. Examples of debris include non-operational satellites, rocket bodies, and fragments generated from explosions, collisions, or faulty payload assembly.

Loading next visibility...
Identifier
40556, 2015-020E
Orbit
LEO
Country
Flag of CISCIS
Related business
Manufacturer
Khrunichev
Mission
Spacecraft
Bus & Motor
BRIZ, S5.92
Mass
2,370 kg wet, 2,370 kg dry
Launch date (UTC)
2015-03-31 (11 years ago)
Launch vehicle
Unknown
Launch site
Plesetsk Missile And Space Complex (PKMTR)
Object type
Payload
Rocket body
Debris
Shape & HBR
Hex Cyl + 1 Rod, 2.0 m
Radar Cross Section
10.190 m², Large (>1 m²)

Expand to show TLE details & history
Last TLE update: 11 hours ago

TLE from 11 hours ago
0 BREEZE-KM R/B
1 40556U 15020E   26036.77979381  .00000040  00000-0  11546-3 0  9990
2 40556  82.4899 293.9503 0215050 356.0886   3.8525 12.80559473507337
Epoch: 2026-02-05T18:42Z
TLE epoch observation values (Epoch: 2026-02-05T18:42:54.185Z)
Latitude
-0°
Longitude
-122.70259°
Altitude
1,176.378 km
Speed
7.343 km/s
True Right ascension
19h 35m 48s
True Declination
0° 00' 00"
Sunlit
Object was in daylight at epoch
Visualization orbit readout
Latitude
Unknown
Longitude
Unknown
Altitude
Unknown
Speed
Unknown
Apparent Right ascension
Unknown
Apparent Declination
Unknown
Sunlit
N/A
Visualization observer readout
Local Sidereal Time
07:24:39
Azimuth
Unknown
Elevation
Unknown
Doppler factor
Unknown
Orbital elements
Apogee altitude
1,502.421 km
Perigee altitude
1,170.614 km
Semi-major axis
7,714.655 km
Eccentricity
0.02151
Inclination
82.4899°
RAAN
293.9503°
Arg. of periapsis
356.0886°
True anomaly
4.02263°
Mean anomaly
3.8525°
Eccentric anomaly
3.9371°
Mean motion
3.20308 °/min
Orbital period
112.39 mins
BSTAR
0.00011546
Loading maneuver chart data...
Computing Atmospheric mass density...
Loading historical data...
Loading historical data...
Loading historical data...
Loading historical data...
Loading historical data...
Loading historical data...
Loading historical data...

Documentation

Showing up to 5 results
|